This demonstration page uses our WeatherBlox Daily Observations layout. Learn more.

Left ArrowRight Arrow

39.92423, -83.80882

Hourly Observations for January 21, 2015

Temp ( °F °C ) Dew Point ( °F °C ) Humidity (%) Winds ( mph kmh ) Pressure ( in mb ) Visibility ( mi km ) Precip ( " mm )
12:56 am 00:56 Cloudy with Mist and Fog 35 1.6 33 0.5 93 93 SSE 5 7 29.97 1015 5 8 0.00 0.00
1:56 am 01:56 Cloudy with Mist and Fog 36 2.2 33 0.5 89 89 S 5 7 29.98 1015 6 10 0.00 0.00
2:56 am 02:56 Clear with Mist and Fog 34 1.1 33 0.5 96 96 SSE 5 7 29.98 1015 4 6 0.00 0.00
4:29 am 04:29 Cloudy with Mist and Fog 34 1 34 1 100 100 Calm 30.03 1017 4 6 0.00 0.00
4:56 am 04:56 Cloudy with Mist and Fog 34 1.1 33 0.5 96 96 S 3 6 29.98 1015 5 8 0.00 0.00
5:23 am 05:23 Cloudy with Mist and Fog 36 2 34 1 93 93 SSW 6 9 30.03 1017 5 8 0.00 0.00
5:36 am 05:36 Cloudy with Mist and Fog 36 2 34 1 93 93 S 5 7 30.03 1017 4 6 0.00 0.00
5:56 am 05:56 Cloudy with Mist and Fog 36 2.2 34 1.1 93 93 W 9 15 29.99 1016 3 5 0.00 0.00
6:04 am 06:04 Cloudy with Mist and Fog 36 2 34 1 93 93 W 10 17 30.03 1017 3 4 0.00 0.00
6:39 am 06:39 Cloudy with Mist and Fog 36 2 34 1 93 93 WSW 9 15 30.03 1017 4 6 0.00 0.00
6:46 am 06:46 Cloudy with Mist and Fog 36 2 34 1 93 93 W 12 19 30.03 1017 4 6 0.00 0.00
6:56 am 06:56 Cloudy with Mist and Fog 35 1.6 33 0.5 93 93 SW 9 15 30.01 1016 5 8 0.00 0.00
7:25 am 07:25 Cloudy with Mist and Fog 36 2 34 1 93 93 SW 9 15 30.06 1018 5 8 0.00 0.00
7:56 am 07:56 Cloudy with Mist and Fog 35 1.6 33 0.5 93 93 WSW 10 17 30.01 1016 5 8 0.00 0.00
8:56 am 08:56 Cloudy with Mist and Fog 35 1.6 33 0.5 93 93 WSW 14 22 30.04 1017 4 6 0.00 0.00
9:56 am 09:56 Cloudy with Mist and Fog 36 2.2 32 0 86 86 W 15 24 30.06 1018 5 8 0.00 0.00
10:34 am 10:34 Cloudy with Mist and Fog 37 3 34 1 87 87 WSW 15 24 30.12 1020 5 8 0.00 0.00
10:56 am 10:56 Cloudy with Mist and Fog 37 2.7 33 0.5 86 86 W 16 26 30.08 1019 6 10 0.00 0.00
11:56 am 11:56 Cloudy with Haze 39 3.8 34 1.1 83 83 WSW 13 20 30.06 1018 5 8 0.00 0.00
12:04 pm 12:04 Cloudy with Haze 39 4 34 1 81 81 SW 13 20 30.06 1018 5 8 0.00 0.00
12:56 pm 12:56 Cloudy with Haze 39 3.8 34 1.1 83 83 WSW 14 22 30.06 1018 5 8 0.00 0.00
1:56 pm 13:56 Mostly Cloudy with Haze 42 5.5 35 1.6 76 76 SW 10 17 30.04 1017 6 10 0.00 0.00
2:56 pm 14:56 Cloudy 42 5.5 34 1.1 74 74 SSW 10 17 30.03 1017 7 11 0.00 0.00
3:56 pm 15:56 Cloudy 41 5 34 1.1 76 76 WSW 13 20 30.05 1018 8 13 0.00 0.03
4:56 pm 16:56 Cloudy 41 5 32 0 70 70 W 12 19 30.06 1018 8 13 0.00 0.03
5:56 pm 17:56 Cloudy 39 3.8 32 0 77 77 W 12 19 30.09 1019 9 14 0.00 0.00
6:56 pm 18:56 Cloudy 38 3.3 30 -1.1 73 73 W 15 24 30.13 1020 10 16 0.00 0.00
7:38 pm 19:38 Cloudy 37 3 32 0 81 81 WNW 12 19 30.18 1022 9 14 0.00 0.00
7:56 pm 19:56 Cloudy 36 2.2 32 0 86 86 WNW 13 20 30.15 1021 8 13 0.00 0.00
8:56 pm 20:56 Cloudy 35 1.6 31 -0.5 86 86 W 12 19 30.17 1022 8 13 0.00 0.00
9:56 pm 21:56 Cloudy 35 1.6 31 -0.5 86 86 W 14 22 30.17 1022 8 13 0.00 0.00
10:56 pm 22:56 Cloudy 35 1.6 31 -0.5 86 86 W 10 17 30.19 1022 8 13 0.00 0.00
11:23 pm 23:23 Cloudy 36 2 30 -1 81 81 W 13 20 30.24 1024 8 13 0.00 0.00
11:56 pm 23:56 Cloudy 35 1.6 32 0 89 89 W 10 17 30.20 1023 7 11 0.00 0.00

Powered by AerisWeather